Ephrata, WA
on Tuesday, January 8, 2013

Tuesday
Previous Day Next Day
Daily Summary
 ActualAverageRecord
Temperature
Mean Temperature °F 27°F  
Max Temperature 36°F 34°F 54°F (2002)
Min Temperature 23°F 21°F -7°F (1974)
Degree Days
Heating Degree Days 35 38  
Month to date heating degree days 305 305  
Since 1 July heating degree days 2560 2891  
Cooling Degree Days 0 0  
Month to date cooling degree days 0 0  
Year to date cooling degree days 0 0  
Moisture
Dew Point 32°F   
Average Humidity 88    
Maximum Humidity 100    
Minimum Humidity 75    
Precipitation
Precipitation 0.13 in 0.03 in 0.45 in (1993)
Month to date precipitation 0.18 0.27  
Year to date precipitation 0.18 0.27  
Wind
Wind Speed 5 mph   
Max Wind Speed 25 mph   
Max Gust Speed 31 mph   
Visibility 4 miles   
Events Fog , Rain   

Key: T is trace of precipitation, MM is missing value
Source: NWS Daily Summary
Time(PST)TemperatureDew PointHumidity Pressure Visibility Wind DirectionWind SpeedGust SpeedPrecipitationEvents Conditions
12:53 AM 26.1°F 23.0°F 88% 30.09 in 10.0 miles South 8.1 mph - N/A   Clear
1:53 AM 25.0°F 23.0°F 92% 30.11 in 10.0 miles Calm Calm - N/A   Clear
2:53 AM 32.0°F 28.0°F 85% 30.12 in 10.0 miles WSW 9.2 mph - N/A   Clear
3:53 AM 30.9°F 27.0°F 85% 30.11 in 10.0 miles NW 3.5 mph - N/A   Clear
4:53 AM 33.1°F 28.0°F 82% 30.10 in 10.0 miles WSW 5.8 mph - N/A   Overcast
6:53 AM 32.0°F 28.0°F 85% 30.11 in 10.0 miles Calm Calm - N/A   Overcast
7:53 AM 36.0°F 28.9°F 76% 30.12 in 10.0 miles North 3.5 mph - N/A   Overcast
8:53 AM 34.0°F 30.0°F 85% 30.13 in 10.0 miles NNE 5.8 mph - 0.00 in Rain Light Rain
9:01 AM 33.8°F 30.2°F 87% 30.10 in 8.0 miles North 6.9 mph - 0.00 in Rain Light Rain
9:53 AM 34.0°F 30.9°F 89% 30.14 in 5.0 miles North 4.6 mph - 0.05 in Rain Light Rain
10:17 AM 33.8°F 30.2°F 87% 30.09 in 5.0 miles North 9.2 mph 31.1 mph 0.02 in Rain Light Rain
10:42 AM 33.8°F 32.0°F 93% 30.09 in 3.0 miles North 6.9 mph - 0.04 in Rain Rain
10:53 AM 34.0°F 32.0°F 92% 30.11 in 3.0 miles North 6.9 mph - 0.06 in Rain Rain
11:04 AM 33.8°F 33.8°F 100% 30.06 in 4.0 miles NNE 8.1 mph - 0.02 in Rain Light Rain
11:53 AM 34.0°F 32.0°F 92% 30.07 in 9.0 miles North 6.9 mph - 0.02 in   Overcast
12:53 PM 34.0°F 33.1°F 96% 30.04 in 5.0 miles North 6.9 mph - N/A   Overcast
1:26 PM 33.8°F 33.8°F 100% 29.98 in 4.0 miles Calm Calm - N/A   Overcast
1:53 PM 34.0°F 33.1°F 96% 30.02 in 2.0 miles North 3.5 mph - N/A   Overcast
2:02 PM 33.8°F 33.8°F 100% 29.98 in 1.5 miles North 3.5 mph - N/A   Overcast
2:31 PM 35.6°F 33.8°F 93% 29.96 in 2.0 miles North 3.5 mph - N/A   Overcast
2:53 PM 34.0°F 33.1°F 96% 29.99 in 2.0 miles North 4.6 mph - N/A   Overcast
3:02 PM 33.8°F 33.8°F 100% 29.95 in 2.0 miles North 4.6 mph - N/A   Overcast
3:30 PM 33.8°F 33.8°F 100% 29.94 in 3.0 miles NNE 3.5 mph - N/A   Overcast
3:53 PM 34.0°F 33.1°F 96% 29.98 in 2.5 miles Calm Calm - N/A   Overcast
4:10 PM 33.8°F 33.8°F 100% 29.93 in 1.5 miles Calm Calm - N/A   Overcast
4:24 PM 33.8°F 33.8°F 100% 29.92 in 0.5 miles Calm Calm - N/A Fog Fog
4:33 PM 33.8°F 33.8°F 100% 29.91 in 0.2 miles Calm Calm - N/A Fog Fog
4:49 PM 33.8°F 33.8°F 100% 29.90 in 0.5 miles Calm Calm - N/A Fog Fog
4:53 PM 34.0°F 33.1°F 96% 29.94 in 0.5 miles Calm Calm - N/A Fog Fog
5:12 PM 33.8°F 33.8°F 100% 29.89 in 0.2 miles Calm Calm - N/A Fog Fog
5:53 PM 33.1°F 33.1°F 100% 29.91 in 0.2 miles Calm Calm - N/A Fog Fog
6:53 PM 34.0°F 33.1°F 96% 29.86 in 0.2 miles SW 6.9 mph - N/A Fog Fog
7:53 PM 34.0°F 34.0°F 100% 29.86 in 0.2 miles SSW 5.8 mph - N/A Fog Fog
8:17 PM 33.8°F 33.8°F 100% 29.82 in 0.2 miles SW 6.9 mph - N/A Fog Fog
9:02 PM 33.8°F 33.8°F 100% 29.80 in 2.0 miles South 5.8 mph - N/A   Mostly Cloudy
9:09 PM 35.6°F 33.8°F 93% 29.80 in 9.0 miles SSW 9.2 mph - N/A   Scattered Clouds
9:47 PM 33.8°F 33.8°F 100% 29.79 in 6.0 miles South 3.5 mph - N/A   Mostly Cloudy
9:53 PM 34.0°F 33.1°F 96% 29.83 in 5.0 miles South 3.5 mph - N/A   Mostly Cloudy
10:19 PM 33.8°F 33.8°F 100% 29.79 in 1.5 miles Calm Calm - N/A   Mostly Cloudy
10:28 PM 33.8°F 33.8°F 100% 29.79 in 0.5 miles South 3.5 mph - N/A Fog Fog
10:35 PM 33.8°F 33.8°F 100% 29.79 in 0.2 miles SW 3.5 mph - N/A Fog Fog
10:53 PM 33.1°F 32.0°F 96% 29.82 in 0.2 miles SSW 4.6 mph - N/A Fog Fog
11:05 PM 32.0°F 32.0°F 100% 29.78 in 0.5 miles Calm Calm - N/A Fog Fog
11:12 PM 32.0°F 30.2°F 93% 29.77 in 0.5 miles Calm Calm - N/A Fog Fog
11:20 PM 33.8°F 32.0°F 93% 29.77 in 1.2 miles Calm Calm - N/A   Scattered Clouds
11:53 PM 35.1°F 34.0°F 96% 29.80 in 10.0 miles SSW 10.4 mph - N/A   Clear
Moon Phase
Jan. 08 Jan. 11 Jan. 18 Jan. 26 Feb. 03
Sunrise:07:43 AM (PST) Moon Rise:04:21 AM (PST)1/8
Sunset:04:26 PM (PST) Moon Set:01:33 PM (PST)1/8

Copyright © 2014 The Weather Underground, Inc.